Weather History for Iron Mountain, MI

Change the Weather History Date:

Tuesday, February 19, 2013

  Actual Average Record
Temperature  
Mean Temperature 18 °F -  
Max Temperature 28 °F 31 °F 52 °F (1981)
Min Temperature 9 °F 10 °F -23 °F (1959)
Degree Days  
Heating Degree Days 46    
Moisture  
Dew Point 9 °F    
Average Humidity 73    
Maximum Humidity 93    
Minimum Humidity 58    
Precipitation  
Precipitation 0.00 in - - ()
Sea Level Pressure  
Sea Level Pressure 29.61 in    
Wind  
Wind Speed 21 mph (NW)    
Max Wind Speed 32 mph    
Max Gust Speed 45 mph    
Visibility 4 miles    
Events Snow    
Averages and records for this station are not official NWS values.
T = Trace of Precipitation, MM = Missing Value Source: NWS Daily Summary

Daily Weather History Graph

Daily Weather History Graph

Search for Another Location

Airport:

Trip Planner

Search our weather history database for the weather conditions in past years. The results will help you decide how hot, cold, wet, or windy it might be!

Date:

Astronomy

Feb. 19, 2013 Rise Set
Actual Time 6:47 AM CST 5:25 PM CST
Civil Twilight 6:17 AM CST 5:55 PM CST
Nautical Twilight 5:42 AM CST 6:30 PM CST
Astronomical Twilight 5:08 AM CST 7:04 PM CST
Moon 11:46 AM CST (2/19) 2:29 AM CST (2/19)
Length of Visible Light 11h 38m
Length of Day
10h 37m
Waxing Gibbous, 67% of the Moon is Illuminated
Feb 19
Waxing Gibbous
Feb 25
Full
Mar 4
Last Quarter
Mar 11
New
Mar 19
First Quarter

Hourly Weather History & Observations

Time (CST) Temp. Windchill Dew Point Humidity Pressure Visibility Wind Dir Wind Speed Gust Speed Precip Events Conditions
12:24 AM 28.4 °F 17.5 °F 26.6 °F 93% 29.37 in 1.2 mi NW 13.8 mph 20.7 mph 0.00 in Snow Light Snow
12:37 AM 28.4 °F 16.6 °F 26.6 °F 93% 29.37 in 1.2 mi NNW 16.1 mph 23.0 mph 0.00 in Snow Light Snow
12:54 AM 28.9 °F 18.2 °F 25.0 °F 85% 29.41 in 1.2 mi NNW 13.8 mph - 0.00 in Snow Light Snow
1:54 AM 28.0 °F 15.7 °F 25.0 °F 88% 29.41 in 1.0 mi NW 17.3 mph 23.0 mph 0.00 in Snow Light Snow
2:31 AM 28.4 °F 17.5 °F 24.8 °F 86% 29.36 in 1.5 mi NW 13.8 mph 25.3 mph 0.00 in Snow Light Snow
2:54 AM 28.0 °F 16.1 °F 25.0 °F 88% 29.40 in 2.0 mi NW 16.1 mph 21.9 mph 0.00 in Snow Light Snow
3:30 AM 26.6 °F 12.7 °F 24.8 °F 93% 29.35 in 1.8 mi NNW 20.7 mph 26.5 mph 0.00 in Snow Light Snow
3:47 AM 26.6 °F 13.1 °F 21.2 °F 80% 29.36 in 1.5 mi NW 19.6 mph 26.5 mph 0.00 in Snow Light Snow
3:54 AM 25.0 °F 9.9 °F 19.9 °F 81% 29.41 in 1.5 mi NW 23.0 mph 39.1 mph 0.00 in Snow Light Snow
4:10 AM 23.0 °F 8.0 °F 19.4 °F 86% 29.37 in 2.0 mi NW 20.7 mph 31.1 mph 0.00 in Snow Light Snow
4:33 AM 21.2 °F 3.3 °F 15.8 °F 80% 29.39 in 1.8 mi NW 28.8 mph 36.8 mph 0.00 in Snow Light Snow
4:40 AM 19.4 °F 1.4 °F 15.8 °F 86% 29.39 in 1.8 mi NNW 26.5 mph 40.3 mph 0.00 in Snow Light Snow
4:47 AM 19.4 °F 1.8 °F 15.8 °F 86% 29.40 in 2.5 mi NW 25.3 mph 35.7 mph 0.00 in Snow Light Snow
4:54 AM 19.9 °F 3.2 °F 14.0 °F 78% 29.45 in 3.0 mi NW 23.0 mph 35.7 mph 0.00 in Snow Light Snow
5:23 AM 19.4 °F 3.2 °F 12.2 °F 74% 29.41 in 3.0 mi NW 20.7 mph 32.2 mph 0.00 in Snow Light Snow
5:31 AM 17.6 °F -0.6 °F 12.2 °F 79% 29.42 in 2.5 mi NW 25.3 mph 33.4 mph 0.00 in Snow Light Snow
5:47 AM 17.6 °F -0.3 °F 12.2 °F 79% 29.42 in 4.0 mi NW 24.2 mph 32.2 mph 0.00 in Snow Light Snow
5:54 AM 17.1 °F -1.4 °F 10.9 °F 77% 29.48 in 2.0 mi NW 25.3 mph 38.0 mph 0.00 in Snow Light Snow
6:30 AM 15.8 °F -2.7 °F 10.4 °F 79% 29.45 in 2.0 mi NW 24.2 mph 35.7 mph 0.00 in Snow Light Snow
6:40 AM 15.8 °F -1.9 °F 10.4 °F 79% 29.46 in 1.5 mi NW 21.9 mph 38.0 mph 0.00 in Snow Light Snow
6:54 AM 15.1 °F -3.3 °F 10.0 °F 80% 29.52 in 1.2 mi NW 23.0 mph 35.7 mph 0.00 in Snow Light Snow
7:54 AM 15.1 °F -4.0 °F 9.0 °F 77% 29.56 in 1.2 mi NW 25.3 mph 33.4 mph 0.00 in Snow Light Snow
8:03 AM 15.8 °F -1.1 °F 8.6 °F 73% 29.50 in 1.5 mi NW 19.6 mph 31.1 mph 0.00 in Snow Light Snow
8:17 AM 14.0 °F -3.9 °F 8.6 °F 79% 29.51 in 1.8 mi NW 20.7 mph 38.0 mph 0.00 in Snow Light Snow
8:54 AM 15.1 °F -4.0 °F 6.1 °F 68% 29.58 in 2.0 mi NW 25.3 mph 34.5 mph 0.00 in   Overcast
9:14 AM 15.8 °F -3.7 °F 5.0 °F 62% 29.53 in 1.5 mi NW 27.6 mph 39.1 mph 0.00 in Snow Blowing Snow
9:51 AM 15.8 °F -3.7 °F 5.0 °F 62% 29.55 in 3.0 mi NW 27.6 mph 39.1 mph 0.00 in Snow Blowing Snow
9:54 AM 15.1 °F -2.9 °F 5.0 °F 64% 29.61 in 4.0 mi NW 21.9 mph 39.1 mph 0.00 in Snow Blowing Snow
10:05 AM 15.8 °F -4.1 °F 6.8 °F 68% 29.56 in 1.8 mi NW 28.8 mph 40.3 mph 0.00 in Snow Light Snow
10:41 AM 15.8 °F -2.7 °F 5.0 °F 62% 29.58 in 3.0 mi NW 24.2 mph 42.6 mph 0.00 in Snow Blowing Snow
10:54 AM 15.1 °F -2.9 °F 5.0 °F 64% 29.64 in 4.0 mi NNW 21.9 mph 39.1 mph 0.00 in Snow Blowing Snow
11:05 AM 15.8 °F -2.7 °F 5.0 °F 62% 29.59 in 2.0 mi NW 24.2 mph 44.9 mph N/A Snow Blowing Snow
11:15 AM 15.8 °F -3.4 °F 5.0 °F 62% 29.60 in 4.0 mi NW 26.5 mph 38.0 mph N/A Snow Blowing Snow
11:46 AM 15.8 °F -3.4 °F 5.0 °F 62% 29.61 in 2.5 mi NW 26.5 mph 39.1 mph 0.00 in Snow Blowing Snow
12:04 PM 15.8 °F -4.4 °F 3.2 °F 58% 29.62 in 3.0 mi NW 29.9 mph 42.6 mph N/A Snow Blowing Snow
12:10 PM 15.8 °F -5.0 °F 5.0 °F 62% 29.62 in 1.8 mi NW 32.2 mph 43.7 mph N/A Snow Blowing Snow
12:21 PM 15.8 °F -4.7 °F 3.2 °F 58% 29.63 in 3.0 mi NW 31.1 mph 42.6 mph N/A Snow Blowing Snow
12:54 PM 15.1 °F -4.7 °F 3.9 °F 61% 29.71 in 3.0 mi NW 27.6 mph 36.8 mph 0.00 in Snow Blowing Snow
1:54 PM 15.1 °F -3.3 °F 3.9 °F 61% 29.75 in 8.0 mi NW 23.0 mph 32.2 mph 0.00 in   Overcast
2:54 PM 14.0 °F -5.8 °F 3.0 °F 62% 29.79 in 6.0 mi NNW 26.5 mph 35.7 mph 0.00 in Snow Blowing Snow
3:54 PM 12.9 °F -6.1 °F 3.0 °F 65% 29.84 in 7.0 mi NNW 23.0 mph 38.0 mph N/A   Overcast
4:54 PM 12.0 °F -7.7 °F 3.0 °F 67% 29.88 in 2.0 mi NW 24.2 mph 33.4 mph 0.00 in Snow Light Snow
5:07 PM 10.4 °F -9.1 °F 1.4 °F 67% 29.82 in 3.0 mi NW 21.9 mph 34.5 mph 0.00 in Snow Blowing Snow
5:24 PM 10.4 °F -7.7 °F 1.4 °F 67% 29.83 in 5.0 mi NW 18.4 mph 28.8 mph 0.00 in Snow Blowing Snow
5:32 PM 10.4 °F -9.1 °F 1.4 °F 67% 29.84 in 9.0 mi NW 21.9 mph 34.5 mph 0.00 in   Mostly Cloudy
6:54 PM 9.0 °F -9.0 °F -0.0 °F 67% 29.96 in 10.0 mi NW 17.3 mph 32.2 mph 0.00 in   Mostly Cloudy
7:44 PM 10.4 °F -7.7 °F 1.4 °F 67% 29.89 in 10.0 mi NW 18.4 mph 25.3 mph N/A   Overcast
7:54 PM 10.0 °F -7.6 °F 1.9 °F 70% 29.97 in 10.0 mi NW 17.3 mph 24.2 mph N/A   Overcast
8:54 PM 10.0 °F -9.1 °F 1.9 °F 70% 29.99 in 10.0 mi NW 20.7 mph 27.6 mph N/A   Scattered Clouds
9:54 PM 10.0 °F -8.6 °F 1.0 °F 67% 30.01 in 10.0 mi NNW 19.6 mph 26.5 mph N/A   Scattered Clouds
10:44 PM 10.4 °F -9.1 °F 1.4 °F 67% 29.96 in 10.0 mi NW 21.9 mph 27.6 mph N/A   Mostly Cloudy
10:54 PM 10.0 °F -7.6 °F 1.0 °F 67% 30.04 in 10.0 mi NW 17.3 mph 28.8 mph N/A   Overcast
11:13 PM 10.4 °F -7.2 °F 1.4 °F 67% 29.97 in 10.0 mi NW 17.3 mph 28.8 mph N/A   Overcast
11:54 PM 10.0 °F -7.1 °F 3.0 °F 73% 30.07 in 9.0 mi NW 16.1 mph - N/A   Overcast